Torna al catalogo

STARLINK-2499

AttivoComunicazioniVLEO
NORAD 48377·PAYLOAD·🇺🇸 United States

Lanciato May 4, 2021 da Cape Canaveral Space Force Station

Loading…

Prossimi Passaggi (prossime 24 ore)

TLE

AggiornatoSource: CelesTrak SupGP

Epoca: Sep 15, 2026, 02:03 UTC

1 48377C 21038AA  26258.08590278 -.00009712  00000+0 -31238-3 0  2583
2 48377  53.1585 186.4548 0001401  78.7438 341.4510 15.31700552    15

Traccia STARLINK-2499 in tempo reale con AllMySat

Download on the App Store